Regional Weather Roundup
Issued by NWS

Home | Current Version | Previous Version | Text Only | Print | Product List | Glossary On
Versions: 1 2 3 4 5 6 7 8 9 10 11 12 13 14 15 16 17 18 19 20 21 22 23 24 25 26 27 28 29 30 31 32 33 34 35 36 37 38 39 40 41 42 43 44 45 46 47 48 49 50
000
ASUS43 KTOP 042008
RWRKS

WEATHER ROUNDUP FOR KANSAS
NATIONAL WEATHER SERVICE GOODLAND KS
300 PM CDT MON MAY 04 2015

NOTE:  "FAIR" INDICATES FEW OR NO CLOUDS BELOW 12,000 FEET WITH NO
SIGNIFICANT WEATHER AND/OR OBSTRUCTIONS TO VISIBILITY.

KSZ001>006-013>018-027>032-041>047-042100-
NORTHWEST KANSAS

CITY           SKY/WX    TMP DP  RH WIND       PRES   REMARKS
GOODLAND       CLOUDY    62  47  57 NE6       30.10F
HAYS           PTSUNNY   75  54  46 NE3       30.02F
HILL CITY      PTSUNNY   69  55  60 CALM      30.06F
RUSSELL        CLOUDY    71  56  58 N10       30.00F
$$

KSZ061>065-074>080-084>089-042100-
SOUTHWEST KANSAS

CITY           SKY/WX    TMP DP  RH WIND       PRES   REMARKS
DODGE CITY     CLOUDY    79  52  38 S12       30.01F
ELKHART          N/A     79  52  39 SE17        N/A
GARDEN CITY    MOSUNNY   76  53  44 SE17G23   30.00F
GREAT BEND     CLOUDY    81  61  50 SE10G17   29.98F
LIBERAL        MOSUNNY   79  54  41 SE15G21   30.00F
PRATT          PTSUNNY   81  55  41 S14       30.01F
$$

KSZ066>073-081>083-090>101-042100-
SOUTHEAST KANSAS

CITY           SKY/WX    TMP DP  RH WIND       PRES   REMARKS
CHANUTE        FAIR      82  63  52 S18G24    30.05S
COFFEYVILLE    MOSUNNY   81  61  50 S16G24    30.05F
HUTCHINSON     CLOUDY    81  60  48 S16       29.99F
MEDICINE LODGE   N/A     81  62  52 S9        29.98F
NEWTON         PTSUNNY   81  59  47 S17       30.02F
PARSONS        FAIR      83  64  52 S14G20    30.06F
WICHITA INTL   PTSUNNY   84  61  45 S16G24    30.00F
WICHITA JABRA  PTSUNNY   82  62  50 S15       30.00F
WICHITA MCCONL PTSUNNY   83  62  48 S18G24    30.00F
WINFIELD       PTSUNNY   80  64  58 S15G24    30.02F
$$

KSZ007>012-019>026-033>040-048>060-102>105-042100-
NORTHEAST KANSAS

CITY           SKY/WX    TMP DP  RH WIND       PRES   REMARKS
CONCORDIA      CLOUDY    72  59  63 NW8       30.02S
EMPORIA        PTSUNNY   81  60  48 S17       30.01F
LAWRENCE       SUNNY     83  61  47 S9G18     30.00F
MANHATTAN      TSTM      73  60  63 NW10G22   29.99R
MARYSVILLE     CLOUDY    73  63  68 N3        30.02R
OLATHE IND     MOSUNNY   84  61  45 S14       30.03F
OLATHE EXE     MOSUNNY   81  62  52 S12       30.02F
SALINA         CLOUDY    82  57  42 S7        29.98F
TOPEKA BILLARD MOSUNNY   84  61  45 S15       29.99F
TOPEKA FORBES  MOSUNNY   85  60  42 S15       29.99F
$$


USA.gov is the U.S. government's official web portal to all federal, state and local government web resources and services.